[[{"header":{"parameterUnit":"m.s-1","parameterCategory":1,"la1":30.2991,"la2":30.254,"lo1":-89.0895,"lo2":-89.0444,"dy":0.0017,"dx":0.0017,"nx":28,"ny":28,"refTime":"2024-07-16T09:00:00:Z","depth":0,"parameterNumber":2,"parameterNumberName":"U-component_of_WINDS"},"data":[0,0,0,0,0,0,0,0,0,0,0,0,0,0,0,0,0,0,0,0,0,0,0,0,0,0,0,0,0,0,0,0,0,0,0,0,0,0,0,0,0,0,0,0,0,0,0,0,0,0,0,0,0,0,0,0,0,0,1.1464,1.1463,0,1.1424,1.1423,1.1423,1.1382,1.1382,1.1381,1.1381,1.1339,1.1339,1.1338,0,0,0,0,0,0,0,0,0,0,0,0,0,1.1504,1.1504,1.1464,1.1463,1.1463,1.1424,1.1423,1.1423,1.1382,1.1382,1.1381,1.138,1.1339,1.1339,1.1338,0,0,0,0,0,0,0,0,0,0,0,0,0,1.1478,1.1503,1.1464,1.1438,1.1435,1.1424,1.1423,1.1423,1.1383,1.1382,1.1381,1.138,1.134,1.1339,1.1338,1.1349,0,0,1.1335,1.1335,0,0,0,0,0,0,0,0,1.1479,1.1476,1.1442,1.144,1.1437,1.1407,1.1422,1.1398,1.1383,1.1403,1.1381,1.138,1.1362,1.136,1.1354,1.1347,1.1345,1.1335,1.1334,1.1334,1.1334,0,0,0,0,0,0,0,1.1481,1.1478,1.1448,1.1442,1.1438,1.1428,1.1423,1.1417,1.1388,1.1401,1.1398,1.1394,1.1361,1.1355,1.1353,1.1344,1.1335,1.1334,1.1334,1.1333,1.1343,1.1343,0,0,0,0,0,0,1.1487,1.148,1.1449,1.1447,1.1456,1.1428,1.1423,1.1417,1.1387,1.1382,1.1394,1.1392,1.1357,1.1354,1.1351,1.136,1.1334,1.1333,1.1333,1.1342,1.1343,1.1344,0,0,0,0,0,0,1.1488,1.1485,1.1451,1.1462,1.1457,1.1428,1.1423,1.1417,1.1411,1.1383,1.1377,1.1394,1.1356,1.1352,1.1349,1.1358,1.1333,1.1332,1.1341,1.1342,1.1343,1.138,0,0,0,0,0,0,1.1489,1.1485,1.1489,1.1463,1.1457,1.145,1.1423,1.1417,1.141,1.1406,1.1381,1.1376,1.1355,1.1351,1.1348,1.1357,1.1331,1.134,1.1341,1.1343,1.1378,1.1383,1.1386,0,0,0,0,0,1.1491,1.1502,1.149,1.1486,1.1461,1.1451,1.1447,1.1424,1.1411,1.1414,1.1396,1.1376,1.1358,1.1351,1.1348,1.1356,1.1339,1.1341,1.1343,1.1376,1.1382,1.1386,0,0,0,0,0,0,1.153,1.1498,1.1484,1.1487,1.1472,1.1444,1.1448,1.143,1.1419,1.1416,1.1387,1.1381,1.1381,1.1369,1.1361,1.1364,1.1346,1.1347,1.1372,1.1377,1.1382,1.1384,1.1331,0,0,0,0,0,1.1539,1.1534,1.1505,1.151,1.1504,1.1477,1.1472,1.1455,1.1438,1.1431,1.1413,1.1397,1.1388,1.1382,1.1372,1.1377,1.137,1.1381,1.1385,1.1388,1.1389,1.1389,1.1393,1.1349,1.1349,1.1349,0,0,1.1557,1.1539,1.1537,1.1518,1.1504,1.1498,1.1472,1.1468,1.1463,1.1431,1.1426,1.1412,1.1393,1.1393,1.1393,1.1383,1.14,1.1391,1.1394,1.1393,1.1392,1.1396,1.1399,1.1351,1.135,1.135,0,0,1.1587,1.1573,1.1575,1.1562,1.1542,1.1524,1.1525,1.15,1.1489,1.1485,1.146,1.1454,1.1439,1.1425,1.1417,1.1442,1.1423,1.1439,1.146,1.1461,1.1464,1.1467,1.1475,1.1478,1.1441,1.1441,1.1441,0,1.1612,1.1603,1.1578,1.1575,1.1566,1.1538,1.1539,1.1527,1.1505,1.15,1.1489,1.1468,1.1454,1.145,1.1456,1.145,1.1449,1.1441,1.1466,1.1469,1.1471,1.1478,1.1481,1.1443,1.1442,1.1442,1.1442,0,1.1634,1.1628,1.1632,1.1611,1.1603,1.1602,1.1577,1.1572,1.1556,1.1539,1.1534,1.1515,1.15,1.1498,1.1483,1.1492,1.1486,1.1471,1.1452,1.1477,1.1483,1.1486,1.1446,1.1445,1.1444,1.1444,0,0,1.1686,1.1652,1.1654,1.1643,1.1619,1.1614,1.1611,1.1597,1.1592,1.1578,1.1574,1.1562,1.1548,1.1538,1.152,1.1521,1.154,1.1506,1.1505,1.1511,1.1548,1.1558,1.1562,1.1528,1.1529,1.1529,1.1549,0,1.1711,1.1705,1.1682,1.1683,1.1676,1.1649,1.1646,1.1631,1.1615,1.1607,1.159,1.1581,1.1564,1.1557,1.1557,1.1538,1.1547,1.1536,1.1523,1.1523,1.1528,1.1565,1.1576,1.1596,1.1551,1.1552,1.1552,0,1.1739,1.1726,1.1726,1.1701,1.1697,1.1696,1.168,1.1673,1.1655,1.1643,1.1632,1.1613,1.1608,1.1591,1.1583,1.1576,1.157,1.156,1.156,1.1557,1.1538,1.1561,1.1602,1.1604,1.1556,1.1555,1.1555,0,1.1775,1.1758,1.1755,1.1748,1.1719,1.1718,1.1706,1.1687,1.168,1.1666,1.1661,1.1647,1.1639,1.1628,1.1605,1.1595,1.1599,1.1581,1.1589,1.1589,1.159,1.159,1.1628,1.1588,1.1588,1.1588,1.1588,0,1.1804,1.1804,1.1771,1.1769,1.1769,1.1743,1.1743,1.1728,1.1712,1.1706,1.1682,1.1677,1.1648,1.1639,1.1621,1.1617,1.1614,1.1603,1.1598,1.1605,1.1606,1.1599,1.1596,1.1589,1.1589,1.1589,1.1588,0,1.1844,1.1822,1.1816,1.179,1.1783,1.1784,1.1761,1.1758,1.1741,1.1734,1.1731,1.1705,1.1693,1.167,1.1652,1.164,1.1639,1.1631,1.1645,1.1642,1.165,1.1649,1.1685,1.1687,1.1647,1.1648,1.1648,0,1.1863,1.1862,1.1836,1.183,1.1819,1.1811,1.1803,1.1778,1.1771,1.175,1.1749,1.1736,1.1724,1.1707,1.1686,1.1672,1.1662,1.1676,1.166,1.1666,1.1661,1.166,1.166,1.1679,1.1679,1.168,1.168,0,1.1898,1.1887,1.1877,1.1863,1.1854,1.1842,1.1828,1.1825,1.1796,1.1789,1.1778,1.1768,1.175,1.1737,1.172,1.1707,1.1688,1.1686,1.1686,1.1692,1.17,1.1694,1.1653,1.1685,1.1684,1.1684,1.1684,1.1683,1.1927,1.1925,1.1906,1.1895,1.1882,1.187,1.1865,1.1848,1.1838,1.1821,1.1807,1.1796,1.1778,1.1753,1.1741,1.1732,1.1723,1.1724,1.1724,1.1725,1.1727,1.1703,1.1729,1.1729,1.1728,1.1728,1.1728,0,1.196,1.1947,1.1937,1.1918,1.191,1.1894,1.1878,1.1871,1.1862,1.1847,1.1835,1.1821,1.1809,1.1787,1.1772,1.1768,1.1759,1.1765,1.1764,1.1761,1.1736,1.1737,1.1772,1.1772,1.1772,1.1772,1.1772,1.1772,1.1976,1.1971,1.1958,1.1947,1.1933,1.1923,1.1915,1.1903,1.189,1.1876,1.1865,1.1851,1.1832,1.1816,1.1803,1.1797,1.1791,1.18,1.1791,1.1767,1.1763,1.1759,1.1759,1.1799,1.1799,1.1816,1.1816,1.1816]},{"header":{"parameterUnit":"m.s-1","parameterCategory":1,"la1":30.2991,"la2":30.254,"lo1":-89.0895,"lo2":-89.0444,"dy":0.0017,"dx":0.0017,"nx":28,"ny":28,"refTime":"2024-07-16T09:00:00:Z","depth":0,"parameterNumber":3,"parameterNumberName":"V-component_of_WINDS"},"data":[0,0,0,0,0,0,0,0,0,0,0,0,0,0,0,0,0,0,0,0,0,0,0,0,0,0,0,0,0,0,0,0,0,0,0,0,0,0,0,0,0,0,0,0,0,0,0,0,0,0,0,0,0,0,0,0,0,0,2.1412,2.1413,0,2.1462,2.1462,2.1463,2.1418,2.1416,2.1414,2.1412,2.1461,2.1464,2.1467,0,0,0,0,0,0,0,0,0,0,0,0,0,2.1275,2.1278,2.1412,2.1413,2.1413,2.1462,2.1462,2.1463,2.1418,2.1416,2.1414,2.1412,2.146,2.1463,2.1467,0,0,0,0,0,0,0,0,0,0,0,0,0,2.1331,2.1279,2.1412,2.1397,2.1396,2.1461,2.1462,2.1463,2.1418,2.1416,2.1413,2.141,2.1459,2.1463,2.1467,2.155,0,0,2.1481,2.1483,0,0,0,0,0,0,0,0,2.1327,2.1336,2.1398,2.1398,2.1397,2.1431,2.1432,2.1492,2.1419,2.141,2.1412,2.1409,2.1453,2.1458,2.1473,2.1552,2.1554,2.1482,2.1484,2.1486,2.1487,0,0,0,0,0,0,0,2.1324,2.1333,2.1431,2.1399,2.1399,2.1386,2.1391,2.1443,2.1446,2.141,2.1407,2.1414,2.1452,2.1469,2.1474,2.1555,2.1481,2.1485,2.1488,2.149,2.1702,2.1704,0,0,0,0,0,0,2.1322,2.133,2.143,2.1433,2.1355,2.1391,2.1396,2.1423,2.1445,2.1446,2.1416,2.1412,2.1462,2.1468,2.1475,2.1571,2.1486,2.149,2.1493,2.1699,2.1702,2.1705,0,0,0,0,0,0,2.1319,2.1331,2.1428,2.1381,2.1392,2.1396,2.1426,2.1425,2.1442,2.145,2.145,2.1433,2.146,2.1469,2.1531,2.1573,2.1492,2.1496,2.1695,2.17,2.1704,2.1766,0,0,0,0,0,0,2.1315,2.133,2.1363,2.1382,2.1395,2.1484,2.1429,2.1428,2.145,2.1444,2.1465,2.1466,2.1459,2.1525,2.1536,2.1577,2.15,2.1691,2.1697,2.1702,2.176,2.1772,2.1782,0,0,0,0,0,2.1311,2.1378,2.1365,2.1377,2.1435,2.1487,2.1494,2.1485,2.1453,2.1485,2.149,2.1466,2.1567,2.1532,2.1543,2.1587,2.1689,2.1696,2.1702,2.1755,2.1769,2.1782,0,0,0,0,0,0,2.1363,2.138,2.1366,2.1442,2.1463,2.1479,2.1519,2.1501,2.1531,2.1525,2.1512,2.1517,2.1582,2.1591,2.1552,2.1667,2.1622,2.1632,2.1659,2.1672,2.1683,2.1679,2.1504,0,0,0,0,0,2.1384,2.1425,2.1437,2.1503,2.1515,2.1515,2.1537,2.1528,2.155,2.1559,2.1568,2.1589,2.1625,2.1649,2.1683,2.1761,2.1764,2.1797,2.1808,2.1817,2.1825,2.1865,2.1879,2.1727,2.1727,2.1727,0,0,2.1426,2.1441,2.1468,2.1514,2.153,2.1571,2.1523,2.157,2.16,2.1565,2.1624,2.1632,2.1655,2.1725,2.1756,2.1734,2.1867,2.1825,2.1832,2.1835,2.1873,2.1887,2.19,2.1732,2.1731,2.173,0,0,2.1525,2.1541,2.1596,2.1613,2.1638,2.1637,2.1651,2.1669,2.1673,2.1733,2.1707,2.1742,2.1806,2.1822,2.1839,2.1942,2.192,2.1954,2.201,2.2049,2.2061,2.2072,2.2107,2.212,2.1962,2.1962,2.1962,0,2.1574,2.1637,2.1627,2.1675,2.1696,2.1667,2.1722,2.1738,2.1772,2.1787,2.1762,2.1839,2.1853,2.1925,2.195,2.1965,2.1979,2.1951,2.2061,2.2071,2.2081,2.2114,2.2128,2.1966,2.1965,2.1965,2.1965,0,2.1696,2.174,2.1782,2.1816,2.1841,2.1892,2.1889,2.1915,2.1904,2.1906,2.1966,2.198,2.2016,2.2033,2.2022,2.2104,2.2089,2.2063,2.2017,2.2099,2.213,2.2143,2.1971,2.197,2.1969,2.1968,0,0,2.1829,2.1856,2.1872,2.1886,2.191,2.1943,2.1993,2.2028,2.205,2.2075,2.2115,2.2168,2.2144,2.2163,2.2154,2.2188,2.2267,2.2157,2.2158,2.2176,2.2356,2.2375,2.239,2.2253,2.2256,2.2258,2.2354,0,2.1928,2.2014,2.2006,2.2088,2.2127,2.21,2.2142,2.2161,2.2164,2.2197,2.22,2.2237,2.2203,2.2214,2.2247,2.2251,2.2303,2.2244,2.2289,2.2291,2.2283,2.2406,2.2427,2.2517,2.2366,2.2368,2.2369,0,2.2054,2.2083,2.2169,2.2186,2.2202,2.2241,2.2271,2.2304,2.2324,2.2323,2.2344,2.2329,2.2377,2.2332,2.2397,2.2357,2.2374,2.2379,2.2382,2.2385,2.2334,2.2411,2.2545,2.2558,2.2389,2.2387,2.2386,0,2.2141,2.2201,2.226,2.2273,2.2295,2.2322,2.2332,2.235,2.2371,2.2398,2.2411,2.2443,2.246,2.2485,2.2478,2.2446,2.2544,2.2498,2.2543,2.2544,2.2565,2.2563,2.2702,2.2579,2.2578,2.2578,2.2578,0,2.2251,2.2304,2.2298,2.2335,2.2393,2.2382,2.244,2.2446,2.2462,2.2498,2.2476,2.251,2.2499,2.2532,2.2527,2.258,2.2589,2.2589,2.2586,2.259,2.259,2.2601,2.2594,2.2582,2.2581,2.258,2.258,0,2.2357,2.2356,2.2418,2.2433,2.2438,2.248,2.2492,2.2526,2.2526,2.2572,2.2582,2.2583,2.262,2.2616,2.2658,2.2654,2.2721,2.2712,2.2714,2.2712,2.2757,2.2752,2.2906,2.2925,2.2791,2.2792,2.2793,0,2.2427,2.2467,2.2486,2.2509,2.2521,2.2558,2.2579,2.257,2.2593,2.2618,2.2648,2.2684,2.2712,2.2773,2.2776,2.2808,2.2798,2.285,2.2803,2.2805,2.2797,2.2795,2.2798,2.2859,2.2861,2.2862,2.2863,0,2.255,2.2547,2.2579,2.2611,2.2637,2.2662,2.2684,2.2704,2.2696,2.2723,2.2761,2.2783,2.2825,2.286,2.289,2.2899,2.2879,2.2878,2.289,2.2893,2.2892,2.2892,2.2738,2.2874,2.2873,2.2872,2.2872,2.2871,2.2639,2.2673,2.2691,2.2727,2.2743,2.2764,2.2796,2.28,2.2832,2.2867,2.2859,2.2902,2.2919,2.2957,2.2969,2.3001,2.2982,2.3,2.3004,2.3008,2.3013,2.2888,2.3007,2.3007,2.3006,2.3006,2.3006,0,2.2759,2.277,2.2803,2.2835,2.2863,2.2843,2.2866,2.2891,2.2929,2.2947,2.2975,2.3018,2.3052,2.3058,2.309,2.3114,2.3106,2.3123,2.312,2.3122,2.3029,2.3015,2.3129,2.3129,2.3129,2.3129,2.3129,2.3129,2.2825,2.2881,2.288,2.2943,2.2953,2.2995,2.301,2.3028,2.3043,2.3092,2.312,2.3124,2.3137,2.317,2.3199,2.32,2.3212,2.3232,2.3229,2.3141,2.3129,2.3117,2.3104,2.3235,2.3235,2.332,2.3321,2.3321]}]]